Weather History for KAFN - August, 2013

Change the Weather History Date:

Monday, August 5, 2013

  Actual Average Record
Temperature  
Mean Temperature 62 °F -  
Max Temperature 72 °F 77 °F 89 °F (2012)
Min Temperature 51 °F 56 °F 51 °F (2000)
Degree Days  
Heating Degree Days 4    
Growing Degree Days 12 (Base 50)    
Moisture  
Dew Point 43 °F    
Average Humidity 54    
Maximum Humidity 86    
Minimum Humidity 27    
Precipitation  
Precipitation 0.00 in - - ()
Sea Level Pressure  
Sea Level Pressure 30.01 in    
Wind  
Wind Speed 5 mph (NW)    
Max Wind Speed 13 mph    
Max Gust Speed 23 mph    
Visibility 10 miles    
Events      
Averages and records for this station are not official NWS values.
T = Trace of Precipitation, MM = Missing Value Source: NWS Daily Summary

Daily Weather History Graph

Daily Weather History Graph

Search for Another Location

Airport or City:

Trip Planner

Search our weather history database for the weather conditions in past years. The results will help you decide how hot, cold, wet, or windy it might be!

Date:

Astronomy

Aug. 05, 2013 Rise Set
Actual Time 5:43 AM EDT 8:03 PM EDT
Civil Twilight 5:12 AM EDT 8:34 PM EDT
Nautical Twilight 4:32 AM EDT 9:13 PM EDT
Astronomical Twilight 3:49 AM EDT 9:57 PM EDT
Moon 4:36 AM EDT (8/5) 7:01 PM EDT (8/5)
Length of Visible Light 15h 22m
Length of Day
14h 19m
Waning Crescent, 1% of the Moon is Illuminated
Aug 5
Waning Crescent
Aug 6
New
Aug 14
First Quarter
Aug 20
Full
Aug 28
Last Quarter

Hourly Weather History & Observations

Time (EDT) Temp. Dew Point Humidity Pressure Visibility Wind Dir Wind Speed Gust Speed Precip Events Conditions
12:52 AM 59.0 °F 48.0 °F 67% 29.94 in 10.0 mi NNW 4.6 mph - N/A   Clear
1:52 AM 57.9 °F 48.0 °F 70% 29.93 in 10.0 mi Variable 4.6 mph - N/A   Clear
2:52 AM 59.0 °F 48.0 °F 67% 29.93 in 10.0 mi Calm Calm - N/A   Clear
3:52 AM 52.0 °F 48.0 °F 86% 29.94 in 10.0 mi South 3.5 mph - N/A   Clear
4:52 AM 57.0 °F 48.0 °F 72% 29.95 in 10.0 mi West 5.8 mph - N/A   Clear
5:52 AM 55.0 °F 48.0 °F 77% 29.98 in 10.0 mi WNW 6.9 mph - N/A   Clear
6:52 AM 55.0 °F 46.9 °F 74% 30.00 in 10.0 mi Calm Calm - N/A   Clear
7:52 AM 57.0 °F 46.0 °F 67% 30.01 in 10.0 mi WNW 10.4 mph - N/A   Clear
8:52 AM 59.0 °F 39.9 °F 49% 30.02 in 10.0 mi NW 12.7 mph 23.0 mph N/A   Clear
9:52 AM 61.0 °F 42.1 °F 50% 30.02 in 10.0 mi Variable 6.9 mph 16.1 mph N/A   Clear
10:52 AM 63.0 °F 39.9 °F 43% 30.01 in 10.0 mi Variable 5.8 mph 18.4 mph N/A   Clear
11:52 AM 64.9 °F 39.0 °F 39% 30.02 in 10.0 mi NNW 10.4 mph 18.4 mph N/A   Clear
12:52 PM 68.0 °F 35.1 °F 30% 30.01 in 10.0 mi NNW 10.4 mph 19.6 mph N/A   Clear
1:52 PM 69.1 °F 37.0 °F 31% 30.00 in 10.0 mi Variable 5.8 mph - N/A   Clear
2:52 PM 70.0 °F 34.0 °F 27% 29.99 in 10.0 mi WNW 9.2 mph 19.6 mph N/A   Clear
3:52 PM 71.1 °F 35.1 °F 27% 30.00 in 10.0 mi NW 8.1 mph 17.3 mph N/A   Clear
4:52 PM 71.1 °F 37.0 °F 29% 30.01 in 10.0 mi NNW 8.1 mph - N/A   Clear
5:52 PM 70.0 °F 37.9 °F 31% 30.01 in 10.0 mi Variable 4.6 mph - N/A   Clear
6:52 PM 69.1 °F 39.9 °F 35% 30.04 in 10.0 mi Calm Calm - N/A   Clear
7:52 PM 64.9 °F 42.1 °F 43% 30.05 in 10.0 mi Calm Calm - N/A   Clear
8:52 PM 60.1 °F 43.0 °F 53% 30.08 in 10.0 mi Calm Calm - N/A   Clear
9:52 PM 55.9 °F 46.0 °F 69% 30.09 in 10.0 mi Calm Calm - N/A   Clear
10:52 PM 53.1 °F 45.0 °F 74% 30.09 in 10.0 mi Calm Calm - N/A   Clear
11:52 PM 51.1 °F 46.9 °F 86% 30.10 in 10.0 mi Calm Calm - N/A   Clear